Date String (YYYY-MM-DD hh:mm:ss) UTC,Instrument flags,absolute air pressure of the measurement (hPa),sample flow rate (lpm),inlet stack bypass flow (lpm),air temperature of the measurement (°C),ambient temperature measured by the external sensor (°C),aerosol sample conditioner tube jacket temperature (°C),OPC LED temperature (°C),internal box temperature (°C),relative humidity of the measurement (%),span deviation,mass concentration of particles derived from Lorenz-Mie calculation of OPC scattering (μg/m³),mass concentration of particles derived from Lorenz-Mie calculation of OPC scattering (μg/m³),mass concentration of particles derived from Lorenz-Mie calculation of OPC scattering (μg/m³)
DateTimeUTC,F1_M11,P_M11,Q1_M11,Q2_M11,T1_M11,T2_M11,T3_M11,T4_M11,T5_M11,U1_M11,ZSPAN_M11,X0_M11,X2_M11,X1_M11
2023-08-26 14:00:00,SystemResetWarning,0840.0,4.97,000.00,031.5,025.9,000.0,039.2,030.9,34.6,-001.7,0011.25,0007.35,0006.86
2023-08-26 14:01:00,SystemResetWarning,0840.1,5.01,000.00,031.6,026.2,000.0,039.2,030.9,34.5,-001.7,0011.36,0007.40,0006.91
2023-08-26 14:02:00,SystemResetWarning,0840.1,5.01,000.00,031.7,026.5,000.0,039.3,030.9,34.3,-002.1,0011.53,0007.48,0006.95
2023-08-26 14:03:00,SystemResetWarning,0840.1,4.99,000.00,031.7,026.7,000.0,039.3,030.9,34.4,-002.0,0011.53,0007.50,0006.97
2023-08-26 14:04:00,SystemResetWarning,0840.0,5.00,000.00,031.7,026.9,000.0,039.4,030.9,34.4,-002.1,0011.56,0007.56,0007.02
2023-08-26 14:05:00,SystemResetWarning,0840.1,4.99,000.00,031.6,027.1,000.0,039.4,031.0,34.5,-002.0,0011.64,0007.63,0007.09
2023-08-26 14:06:00,SystemResetWarning,0840.0,5.00,000.00,031.6,027.2,000.0,039.5,031.0,34.5,-001.9,0011.68,0007.67,0007.15
2023-08-26 14:07:00,SystemResetWarning,0840.0,5.00,000.00,031.5,027.3,000.0,039.5,031.0,34.6,-001.9,0011.94,0007.71,0007.22
2023-08-26 14:08:00,SystemResetWarning,0840.0,5.00,000.00,031.5,027.4,000.0,039.5,031.0,34.7,-001.9,0011.29,0007.78,0007.28
2023-08-26 14:09:00,SystemResetWarning,0839.9,5.00,000.00,031.5,027.5,000.0,039.5,031.0,34.8,-002.1,0011.54,0007.79,0007.29
2023-08-26 14:10:00,SystemResetWarning,0839.9,5.00,000.00,031.4,027.5,000.0,039.5,031.0,35.0,-001.9,0011.83,0007.84,0007.35
2023-08-26 14:11:00,SystemResetWarning,0839.9,4.97,000.00,031.4,027.6,000.0,039.5,031.1,35.1,-002.0,0011.90,0007.85,0007.36
2023-08-26 14:12:00,SystemResetWarning,0840.1,5.03,000.00,031.5,027.6,000.0,039.5,031.1,34.9,-001.9,0011.99,0007.87,0007.38
2023-08-26 14:13:00,SystemResetWarning,0840.1,4.98,000.00,031.5,027.7,000.0,039.5,031.2,34.7,-001.6,0011.98,0007.86,0007.40
2023-08-26 14:14:00,SystemResetWarning,0840.1,5.02,000.00,031.6,027.7,000.0,039.5,031.2,34.7,-001.7,0011.98,0007.88,0007.44
2023-08-26 14:15:00,SystemResetWarning,0840.1,4.99,000.00,031.5,027.7,000.0,039.6,031.2,34.8,-001.6,0012.02,0007.92,0007.47
2023-08-26 14:16:00,SystemResetWarning,0840.0,4.99,000.00,031.5,027.8,000.0,039.6,031.2,34.8,-001.7,0012.25,0007.93,0007.47
2023-08-26 14:17:00,SystemResetWarning,0840.0,5.00,000.00,031.5,027.8,000.0,039.6,031.2,34.9,-002.0,0012.55,0007.97,0007.48
2023-08-26 14:18:00,SystemResetWarning,0840.0,5.00,000.00,031.5,027.5,000.0,039.6,031.2,35.0,-002.1,0012.26,0008.00,0007.52
2023-08-26 14:19:00,SystemResetWarning,0840.0,5.01,000.00,031.6,025.8,000.0,039.4,031.1,34.7,-002.3,0012.33,0008.06,0007.57
2023-08-26 14:20:00,SystemResetWarning,0839.9,4.98,000.00,031.6,024.9,000.0,039.3,031.0,34.6,-002.2,0012.36,0008.15,0007.65
2023-08-26 14:21:00,SystemResetWarning,0839.9,5.01,000.00,031.5,024.8,000.0,039.3,030.6,34.9,-002.1,0012.21,0008.23,0007.73
2023-08-26 14:22:00,SystemResetWarning,0839.9,4.99,000.00,031.3,025.1,000.0,039.3,030.5,35.2,-002.1,0012.23,0008.33,0007.81
2023-08-26 14:23:00,SystemResetWarning,0839.9,5.03,000.00,031.4,025.5,000.0,039.3,030.7,35.1,-002.1,0012.26,0008.45,0007.90
2023-08-26 14:24:00,SystemResetWarning,0840.0,4.96,000.00,031.6,025.8,000.0,039.3,030.8,34.7,-002.2,0012.84,0008.55,0008.01
2023-08-26 14:25:00,SystemResetWarning,0840.0,5.02,000.00,031.7,026.2,000.0,039.3,030.9,34.5,-002.2,0012.88,0008.62,0008.09
2023-08-26 14:26:00,SystemResetWarning,0840.0,5.00,000.00,031.8,026.5,000.0,039.4,030.9,34.2,-002.2,0013.01,0008.71,0008.16
2023-08-26 14:27:00,SystemResetWarning,0840.0,5.00,000.00,031.7,026.7,000.0,039.4,030.9,34.3,-001.9,0012.99,0008.81,0008.24
2023-08-26 14:28:00,SystemResetWarning,0840.0,5.00,000.00,031.7,026.9,000.0,039.4,030.9,34.4,-001.8,0013.21,0008.88,0008.32
2023-08-26 14:29:00,SystemResetWarning,0840.0,5.00,000.00,031.7,027.0,000.0,039.5,031.0,34.5,-001.6,0013.37,0008.94,0008.37
2023-08-26 14:30:00,SystemResetWarning,0840.0,5.00,000.00,031.6,027.1,000.0,039.5,031.0,34.6,-001.5,0013.33,0008.96,0008.40
2023-08-26 14:31:00,SystemResetWarning,0840.0,5.00,000.00,031.6,027.3,000.0,039.5,031.0,34.7,-001.6,0013.22,0008.93,0008.36
2023-08-26 14:32:00,SystemResetWarning,0840.0,4.98,000.00,031.5,027.3,000.0,039.5,031.0,34.7,-001.8,0013.09,0008.87,0008.30
2023-08-26 14:33:00,SystemResetWarning,0840.0,4.99,000.00,031.5,027.4,000.0,039.6,031.0,34.7,-001.7,0013.13,0008.82,0008.23
2023-08-26 14:34:00,SystemResetWarning,0840.0,5.00,000.00,031.4,027.5,000.0,039.6,031.0,34.8,-001.8,0013.07,0008.75,0008.15
2023-08-26 14:35:00,SystemResetWarning,0839.9,5.01,000.00,031.4,027.5,000.0,039.5,031.0,34.9,-001.8,0012.72,0008.65,0008.05
2023-08-26 14:36:00,SystemResetWarning,0839.9,5.01,000.00,031.4,027.5,000.0,039.5,031.1,34.9,-001.8,0013.67,0008.55,0007.96
2023-08-26 14:37:00,SystemResetWarning,0839.9,5.00,000.00,031.3,027.6,000.0,039.5,031.1,34.9,-001.6,0013.81,0008.46,0007.86
2023-08-26 14:38:00,SystemResetWarning,0839.9,5.00,000.00,031.3,027.6,000.0,039.5,031.1,34.8,-001.5,0013.69,0008.36,0007.77
2023-08-26 14:39:00,SystemResetWarning,0839.9,5.00,000.00,031.2,027.6,000.0,039.5,031.1,34.8,-001.3,0013.41,0008.32,0007.71
2023-08-26 14:40:00,SystemResetWarning,0839.9,5.00,000.00,031.2,027.7,000.0,039.5,031.1,34.9,-001.4,0013.36,0008.27,0007.64
2023-08-26 14:41:00,SystemResetWarning,0839.9,4.98,000.00,031.1,027.7,000.0,039.5,031.1,35.0,-001.4,0013.37,0008.23,0007.59
2023-08-26 14:42:00,SystemResetWarning,0839.9,5.04,000.00,031.1,027.7,000.0,039.4,031.1,34.9,-001.3,0013.38,0008.22,0007.57
2023-08-26 14:43:00,SystemResetWarning,0839.9,4.97,000.00,031.2,027.7,000.0,039.4,031.2,34.8,-001.2,0013.53,0008.25,0007.57
2023-08-26 14:44:00,SystemResetWarning,0839.9,5.00,000.00,031.2,027.7,000.0,039.4,031.2,34.8,-001.3,0013.49,0008.24,0007.57
2023-08-26 14:45:00,SystemResetWarning,0839.9,5.01,000.00,031.2,027.8,000.0,039.4,031.2,34.9,-001.0,0013.45,0008.22,0007.57
2023-08-26 14:46:00,SystemResetWarning,0839.9,5.00,000.00,031.1,027.1,000.0,039.3,031.1,34.9,-001.0,0013.28,0008.22,0007.58
2023-08-26 14:47:00,SystemResetWarning,0839.9,4.99,000.00,031.1,025.3,000.0,039.1,030.9,34.9,-000.9,0012.32,0008.25,0007.60
2023-08-26 14:48:00,SystemResetWarning,0839.9,4.99,000.00,031.0,024.7,000.0,039.0,030.7,35.0,-001.1,0012.09,0008.27,0007.62
2023-08-26 14:49:00,SystemResetWarning,0839.8,5.02,000.00,030.9,024.8,000.0,039.0,030.5,35.3,-001.3,0012.25,0008.30,0007.64
2023-08-26 14:50:00,SystemResetWarning,0839.8,5.01,000.00,031.0,025.1,000.0,039.0,030.5,35.1,-001.5,0012.26,0008.33,0007.64
2023-08-26 14:51:00,SystemResetWarning,0839.9,4.97,000.00,031.1,025.5,000.0,039.0,030.7,34.5,-001.2,0012.16,0008.31,0007.64
2023-08-26 14:52:00,SystemResetWarning,0839.9,5.01,000.00,031.2,025.9,000.0,039.0,030.7,34.2,-000.9,0012.28,0008.29,0007.66
2023-08-26 14:53:00,SystemResetWarning,0839.9,5.01,000.00,031.3,026.2,000.0,039.0,030.7,34.1,-000.7,0012.51,0008.29,0007.67
2023-08-26 14:54:00,SystemResetWarning,0840.0,4.99,000.00,031.2,026.4,000.0,039.0,030.8,34.2,-001.0,0012.49,0008.30,0007.69
2023-08-26 14:55:00,SystemResetWarning,0839.9,4.99,000.00,031.2,026.6,000.0,039.1,030.8,34.2,-000.6,0012.49,0008.34,0007.72
2023-08-26 14:56:00,SystemResetWarning,0839.9,5.01,000.00,031.2,026.8,000.0,039.1,030.8,34.4,-001.0,0012.44,0008.35,0007.74
2023-08-26 14:57:00,SystemResetWarning,0839.9,5.01,000.00,031.1,026.9,000.0,039.1,030.8,34.5,-001.2,0012.30,0008.33,0007.74
2023-08-26 14:58:00,SystemResetWarning,0839.9,4.98,000.00,031.1,027.1,000.0,039.1,030.8,34.9,-001.2,0012.19,0008.33,0007.73
2023-08-26 14:59:00,SystemResetWarning,0839.9,5.03,000.00,031.1,027.2,000.0,039.2,030.8,35.0,-001.3,0012.19,0008.35,0007.75
